NB0X-13 Weather Reports


time (UTC)temp
C
wind
direction
speed
KPH
gust
KPH
rain 1hr
cm
rain 24hr
cm
rain mn
cm
humidity
%
barometer
mb
20260502211114 8 27 4.8 8.0 0.00 0.03 0.03 72 1024.4
20260502210104 8 289 1.6 6.4 0.00 0.03 0.03 73 1024.5
20260502205054 7 237 3.2 8.0 0.00 0.03 0.03 79 1024.6
20260502204044 7 224 1.6 4.8 0.00 0.03 0.03 77 1024.6
20260502203034 7 222 4.8 4.8 0.00 0.03 0.03 83 1024.7
20260502202045 7 222 4.8 4.8 0.00 0.03 0.03 83 1024.7
20260502201115 7 323 4.8 6.4 0.00 0.03 0.03 83 1024.7
20260502200105 6 194 3.2 4.8 0.03 0.03 0.03 81 1024.6
20260502195055 7 342 6.4 16.1 0.03 0.03 0.03 79 1024.6
20260502194105 7 257 4.8 12.9 0.03 0.03 0.03 77 1024.7
20260502193056 6 324 4.8 17.7 0.03 0.03 0.03 80 1024.6
20260502192025 7 340 6.4 12.9 0.03 0.03 0.03 82 1024.4
20260502191116 7 312 3.2 9.7 0.03 0.03 0.03 78 1024.6
20260502190106 8 238 8.0 16.1 0.00 0.00 0.00 68 1024.4
20260502185056 10 227 3.2 6.4 0.00 0.00 0.00 60 1024.4
20260502184046 10 190 6.4 9.7 0.00 0.00 0.00 59 1024.5
20260502183037 10 46 4.8 11.3 0.00 0.00 0.00 59 1024.6
20260502182026 10 233 4.8 11.3 0.00 0.00 0.00 62 1024.6
20260502181016 10 183 4.8 9.7 0.00 0.00 0.00 61 1024.7
20260502180107 10 229 4.8 14.5 0.00 0.00 0.00 63 1024.7
20260502170108 8 4 6.4 12.9 0.00 0.00 0.00 70 1025.1
20260502164048 7 5 3.2 8.0 0.00 0.00 0.00 74 1025.1
20260502163038 7 178 3.2 6.4 0.00 0.00 0.00 74 1025.1
20260502162028 7 182 1.6 6.4 0.00 0.00 0.00 76 1025.0
20260502161038 7 171 4.8 8.0 0.00 0.00 0.00 78 1025.0
20260502160129 7 26 4.8 9.7 0.00 0.00 0.00 81 1024.9
20260502152029 5 26 6.4 9.7 0.00 0.00 0.00 88 1025.0
20260502151019 5 35 6.4 9.7 0.00 0.00 0.00 88 1024.9
20260502150110 5 34 4.8 9.7 0.00 0.00 0.00 86 1024.8
20260502140110 3 46 4.8 11.3 0.00 0.00 0.00 92 1024.7
20260502130111 3 32 3.2 6.4 0.00 0.00 0.00 96 1024.2
20260502123042 3 34 3.2 8.0 0.00 0.00 0.00 96 1023.8
20260502122032 3 47 4.8 6.4 0.00 0.00 0.00 96 1023.5
20260502121022 3 18 4.8 9.7 0.00 0.00 0.00 96 1023.6
20260502120113 3 28 4.8 9.7 0.00 0.00 0.00 96 1023.6
20260502115103 3 31 4.8 11.3 0.00 0.00 0.00 96 1023.4
20260502114052 3 61 3.2 8.0 0.00 0.00 0.00 96 1023.4
20260502113042 3 151 3.2 6.4 0.00 0.00 0.00 96 1023.3
20260502112052 3 42 3.2 6.4 0.00 0.00 0.00 96 1023.4
20260502111022 3 23 4.8 9.7 0.00 0.00 0.00 96 1023.3
20260502110113 3 30 3.2 6.4 0.00 0.00 0.00 96 1023.4
20260502105104 3 45 3.2 8.0 0.00 0.00 0.00 96 1023.3
20260502104054 3 26 3.2 8.0 0.00 0.00 0.00 96 1023.2
20260502103044 3 9 3.2 9.7 0.00 0.00 0.00 96 1023.2
20260502102034 3 83 1.6 6.4 0.00 0.00 0.00 96 1023.4
20260502101024 3 181 4.8 6.4 0.00 0.00 0.00 96 1023.5
20260502100115 3 122 0.0 8.0 0.00 0.00 0.00 96 1023.3
20260502091025 2 113 4.8 9.7 0.00 0.00 0.00 95 1023.2
20260502090116 2 151 4.8 9.7 0.00 0.00 0.00 95 1023.1
20260502071027 2 20 1.6 3.2 0.00 0.00 0.00 97 1023.3
20260502070017 2 136 1.6 4.8 0.00 0.00 0.00 97 1023.4
20260502065108 2 52 1.6 3.2 0.00 0.00 0.00 97 1023.3
20260502064058 2 62 1.6 6.4 0.00 0.00 0.00 97 1023.3
20260502063048 2 34 4.8 11.3 0.00 0.00 0.00 97 1023.4
20260502062038 2 51 3.2 6.4 0.00 0.00 0.00 97 1023.4
20260502061533 2 33 1.6 4.8 0.00 0.00 0.00 97 1023.4
20260502060543 2 68 1.6 3.2 0.00 0.00 0.00 97 1023.3
20260502055654 2 39 3.2 6.4 0.00 0.00 0.00 97 1023.5
20260502054604 -17 0.0 0.0 0.00 0.00 0.00
20260502054059 -17 0.0 0.0 0.00 0.00 0.00
20260502051028 2 37 3.2 4.8 0.00 0.00 0.00 98 1023.4
20260502050523 2 38 3.2 4.8 0.00 0.00 0.00 98